www.pogodaiklimat.ru

Погода и климат >> Архив погоды >> Россия >> Краснодарский край >> Белореченск


ПОГОДА в Белореченске

  • Прогноз погоды в Белореченске
  • Монитор погоды в Белореченске

АРХИВ ПОГОДЫ в Белореченске

Время (UTC), дата Ветер
(напр.,м/с)
 
Видим.   Явления Облачность Т
(С)
Тd
(С)
f
(%)
Тe
(С)
Тes
(С)
Комфортность P
(гПа)
Po
(гПа)
Тmin
(С)
Tmax
(С)
R
(мм)
R24
(мм)
S
(см)
06 13.03 СЗ 3 10 км слаб. ливневой дождь 10/10 300 м
[Cb cap]
+2.7 +1.5 92 -2 -2 1013.7 997.1 +2.7
09 13.03 штиль 0 2000 м слаб. ливневой снег 10/10 300 м
[Cb cap]
+0.7 -0.4 92 -1 -1 1014.7 998.0
12 13.03 З 1 500 м ливневой снег 10/10 300 м
[Cb cap]
+0.4 -0.5 94 -2 -2 1015.3 998.6
15 13.03 штиль 0 500 м ливневой снег [диам. отлож. мокр. снега 7 мм] 10/10 300 м
[Cb cap]
+0.2 -0.7 94 -1 -1 1017.1 1000.3 +3.1 13
18 13.03 штиль 0 2000 м слаб. ливневой снег [диам. отлож. мокр. снега 17 мм] 10/10 300 м
[Cb cap]
+0.2 -0.7 94 -1 -1 1018.1 1001.3
21 13.03 штиль 0 10 км {ливн. осадки} [диам. отлож. мокр. снега 17 мм] 10/10 600 м
[Sc diur, vesp]
+0.4 -0.5 94 -1 -1 1018.7 1001.9
00 14.03 штиль 0 10 км {ливн. осадки} [диам. отлож. мокр. снега 14 мм] 10/10 600 м
[Sc]
+0.5 -0.4 94 -1 -1 1019.0 1002.2
03 14.03 штиль 0 10 км [диам. отлож. мокр. снега 10 мм] 10/10 600 м
[Sc]
+0.8 -0.3 92 -0 -0 1019.3 1002.5 +0.1 4 5
06 14.03 СВ 3 20 км 10/10 600 м
[Sc]
+1.4 -0.1 90 -3 -3 1018.4 1001.7
09 14.03 В 4 20 км 10/8 600 м
[Sc Ac As]
+3.4 +0.1 79 -1 -1 1016.4 999.9
12 14.03 СВ 3 20 км 10/8 1000 м
[Sc Ac As]
+6.1 +2.1 76 +3 +3 1014.9 998.5
15 14.03 В 4 20 км 4/3 1000 м
[Sc Ac As]
+6.5 +1.9 72 +3 +3 1013.6 997.2 +7.1
18 14.03 В 4 10 км в посл. час ливневой дождь 10/8 600 м
[Cb cap Ac As]
+5.7 +1.9 77 +2 +2 1012.2 995.8
21 14.03 ЮВ 3 10 км слаб. ливневой дождь 10/10 600 м
[Cb cap]
+5.2 +2.1 80 +2 +2 1010.5 994.1
00 15.03 С 1 10 км {ливн. осадки} 10/10 600 м
[Cb cap]
+4.0 +2.6 91 +2 +2 1009.6 993.2
03 15.03 ЮВ 1 10 км 10/8 600 м
[Sc diur, vesp Ac As]
+3.4 +2.3 92 +2 +2 1009.6 993.1 +2.8 1
06 15.03 З 1 10 км 10/10 600 м
[Sc diur, vesp]
+4.7 +3.1 89 +3 +3 1009.6 993.2
09 15.03 З 3 10 км 10/3 1000 м
[Sc Ac As]
+7.1 +4.1 81 +4 +6 1009.0 992.8
12 15.03 СЗ 1 4000 м слаб. ливневой дождь 10/10 300 м
[Cb cap]
+7.4 +6.3 93 +6 +6 1008.4 992.2
15 15.03 СВ 2 10 км слаб. ливневой дождь 10/10 300 м
[Cb cap]
+7.1 +5.8 91 +5 +5 1008.6 992.4 +8.1 3
18 15.03 В 2 10 км {ливн. осадки} 9/9 1000 м
[Sc diur, vesp]
+6.1 +4.6 90 +4 +4 1008.0 991.8
21 15.03 ЮЗ 1 10 км 10/0
[Ac As]
+6.3 +5.3 93 +5 +5 1008.4 992.2
00 16.03 З 2 10 км 10/6 1000 м
[Sc Ac As]
+7.0 +4.5 84 +5 +5 1009.1 992.8
03 16.03 З 1 10 км 10/0
[Ac und]
+6.1 +4.4 89 +5 +5 1009.9 993.6 +5.7 0.0
06 16.03 СЗ 2 4000 м дымка 10/0
[Ac As]
+6.5 +3.9 83 +4 +6 1010.0 993.7
09 16.03 ЮЗ 1 4000 м слаб. ливневой дождь 10/10 300 м
[Cb cap]
+6.1 +4.1 87 +5 +5 1009.9 993.6
12 16.03 З 2 4000 м слаб. ливневой дождь 10/10 300 м
[Cb cap]
+5.5 +4.1 91 +3 +3 1009.6 993.3
15 16.03 З 1 4000 м слаб. ливневой дождь 10/10 600 м
[Cb cap]
+5.2 +3.5 89 +4 +4 1010.4 994.0 +6.7 8
18 16.03 ЮВ 1 4000 м слаб. ливневой дождь 10/8 600 м
[Cb cap Ac As]
+5.1 +4.0 93 +4 +4 1011.3 994.9
21 16.03 З 1 10 км слаб. ливневой дождь 10/10 600 м
[Cb cap]
+5.3 +3.3 87 +4 +4 1010.7 994.3
00 17.03 ЮВ 1 10 км в посл. час ливневой дождь 10/5 600 м
[Cb cap Ac As]
+4.5 +3.2 91 +3 +3 1009.3 992.9
03 17.03 СВ 1 1000 м слаб. ливневой дождь 10/10 600 м
[Cb cap]
+5.1 +3.6 90 +4 +4 1008.6 992.3 +4.5 3
06 17.03 В 3 10 км слаб. ливневой дождь 10/10 300 м
[Cb cap]
+5.8 +3.9 88 +2 +2 1009.7 993.4
09 17.03 В 1 20 км {ливн. осадки} 10/8 300 м
[Sc diur, vesp Ac As]
+8.4 +3.6 72 +8 +9 1010.1 994.0
12 17.03 Ю 3
{11}
20 км в посл. час ливневой дождь 10/8 300 м
[Cb cap Ac cuf Ci ing]
+10.1 +2.1 58 +8 +9 1010.9 994.8
15 17.03 Ю 3
{13}
10 км 10/10 600 м
[Cb cap]
+5.9 +2.5 79 +3 +3 1014.9 998.5 +10.5 2
18 17.03 Ю 4 10 км 8/6 300 м
[Sc diur, vesp Ac cuf]
+6.1 +1.8 74 +2 +2 1017.3 1000.9
21 17.03 Ю 3 10 км ясно +4.8 +1.1 77 +1 +1 1018.5 1001.9
00 18.03 ЮЗ 3 10 км 3/3 1000 м
[Sc]
+4.3 +0.5 76 +1 +1 1019.5 1002.9
03 18.03 ЮЗ 2 10 км 8/3 1000 м
[Sc Ac lent Ci fib]
+3.7 +0.4 79 +1 +1 1020.8 1004.1 +3.6
06 18.03 ЮЗ 2 20 км 9/1 1000 м
[Sc Ac trans Ci sp]
+7.0 +2.0 70 +5 +7 1022.6 1006.2
09 18.03 ЮЗ 3 20 км 9/4 1000 м
[Cu med, cong Ac trans Ci sp]
+10.3 +2.0 56 +9 +12 1022.9 1006.6
12 18.03 З 3 20 км 6/3 1000 м
[Cu med, cong Ac trans]
+10.5 +0.6 50 +9 +12 1023.2 1006.9
15 18.03 С 3 20 км 1/1 1000 м
[Sc diur, vesp]
+9.9 +1.8 57 +8 +8 1023.7 1007.4 +11.5
18 18.03 В 1 10 км ясно +4.1 +1.8 85 +3 +3 1024.8 1008.1
21 18.03 СВ 3 20 км ясно +2.6 +1.0 89 -2 -2 1025.1 1008.3
00 19.03 штиль 0 10 км ясно -0.0 -1.1 92 -1 -1 1025.2 1008.2
03 19.03 штиль 0 10 км ясно +0.7 -0.7 90 -1 -1 1024.9 1008.0 -0.0
06 19.03 В 2 20 км ясно +7.3 +1.1 65 +5 +10 1024.5 1008.0
09 19.03 В 4
{10}
20 км ясно +13.9 -0.1 38 +13 +20 1023.1 1007.1
12 19.03 СВ 2
{10}
20 км ясно +15.3 +0.8 37 +15 +22 1022.3 1006.3
15 19.03 СВ 4
{11}
20 км ясно +13.6 +1.1 43 +12 +12 1021.8 1005.7 +15.5
18 19.03 СВ 2 10 км ясно +8.6 +3.3 69 +7 +7 1022.6 1006.2
21 19.03 СВ 2 10 км ясно +5.8 +2.3 78 +3 +3 1022.2 1005.7
00 20.03 СВ 2 10 км ясно +3.9 +1.3 83 +1 +1 1022.2 1005.5

 

Местоположение метеостанции Белореченск (Краснодарский край, Россия): широта 44.75 долгота 39.90 высота над уровнем моря 139 м.

В архиве по умолчанию представлена погода в Белореченске за последнюю неделю. Архивные данные за месяц целиком и за предыдущие месяцы, начиная с января 2011 года, Вы можете получить, выбрав интересующий диапазон дат из раскрывающегося списка и нажав кнопку "Ввод!".


*Определитесь, кто Вы:
робот инопланетянин человек

Внимание! Время в таблицах - всемирное. Для получения местного времени необходимо прибавить поправку, которая равна 3 ч.

Смотрите также архив погоды в соседних городах и на ближайших метеорологических станциях:

Погода в Майкопе (Адыгея, Россия) (20 км)
Погода в Шунтуке (Адыгея, Россия) (36 км)
Погода в Дондуковской (Адыгея, Россия) (38 км)
Погода в Усть-Лабинске (Краснодарский край, Россия) (55 км)
Погода в Горячем Ключе (Краснодарский край, Россия) (65 км)
Погода в Лабинске (Краснодарский край, Россия) (68 км)
Погода в Даховской (Адыгея, Россия) (68 км)
Погода в Горном (Краснодарский край, Россия) (72 км)
Погода в Краснодаре (Краснодарский край, Россия) (76 км)
Погода в Гузерипле (Адыгея, Россия) (85 км)

Пояснения к столбцам:

Ветер - указаны скорость ветра в м/с - средняя за 10 мин, порывы в срок и между сроками (в фигурных скобках) и направление, откуда дует ветер: С - северный, СВ - северо-восточный, В - восточный, ЮВ - юго-восточный, Ю - южный, ЮЗ - юго-западный, З - западный, СЗ - северо-западный.
Видимость - горизонтальная дальность видимости в метрах или километрах. При видимости от 1 до 10 км при отсутствии осадков обычно наблюдается дымка, при ухудшении видимости до 1 км и менее - туман. В сухую погоду видимость может ухудшаться дымом, пылью или мглою.
Явления - указаны атмосферные явления, наблюдавшиеся в срок или в последний час перед сроком; фигурными скобками обозначены явления, наблюдавшиеся между сроками (за 1-3 часа до срока); квадратными скобками обозначены град или гололедные отложения с указанием их диаметра в мм.
Облачность - указаны через наклонную черту общая и нижняя облачность в баллах и высота нижней границы облаков в метрах; квадратными скобками обозначены формы облаков: Ci - перистые, Cs - перисто-слоистые, Cc - перисто-кучевые, Ac - высококучевые, As - высокослоистые, Sc - слоисто-кучевые, Ns - слоисто-дождевые, Cu - кучевые, Cb - кучево-дождевые. Подробнее классификацию облаков см. в Атласе облаков (PDF).
T - Температура воздуха - температура, измеренная на высоте 2 м над землей.
Td - Температура точки росы - температура, при понижении до которой содержащийся в воздухе водяной пар достигнет насыщения.
f - Относительная влажность воздуха - влажноcть воздуха, измеренная на высоте 2 м над землей.
Te - Эффективная температура - температура, которую ощущает одетый по сезону человек в тени. Характеристика душности погоды. При расчете учитывается влияние влажности воздуха и скорости ветра на теплоощущения человека.
Tes - Эффективная температура на солнце - температура, которую ощущает человек, с поправкой на солнечный нагрев. Характеристика знойности погоды. Зависит от высоты солнца над горизонтом, облачности и скорости ветра. Ночью, в пасмурную погоду, а также при ветре 12 м/с и более поправка равна нулю.
P - Атмосферное давление - приведенное к уровню моря атмосферное давление.
Po - Атмосферное давление - измеренное на уровне метеостанции атмосферное давление.
Tmin - Минимальная температура - минимум температуры воздуха на высоте 2 м над землей.
Tmax - Максимальная температура - максимум температуры воздуха на высоте 2 м над землей.
R - Количество осадков - Количество выпавших осадков за период времени, мм. При наведении курсора мыши на число - период времени, за который выпало указанное количество осадков.
R24 - Количество осадков - Количество выпавших осадков за 24 часа, мм.
S - Снежный покров - Высота снежного покрова, см. При наведении курсора мыши на число - состояние снежного покрова и степень покрытия местности в баллах.